Flag for U.S.A. Weather past 2 weeks in Jersey City, New Jersey, U.S.A.

Now
44 °F

Light rain. Mostly cloudy.


Feels Like: 44 °F
Forecast: 40 / 47 °F
Wind: No wind

Location: Newark International Airport

Current Time: Mar 31, 2015 at 2:37:09 PM

Latest Report: Mar 31, 2015 at 1:51 PM


Visibility: 10 mi

Pressure: 29.78 "Hg

Humidity: 47%

Dew point: 25 °F

Location of Jersey CityLocation

Historic Weather in Jersey City — Graph

°F

Jersey City temperature yesterday

Maximum temperature yesterday: 54 °F (at 1:51 PM)
Minimum temperature yesterday: 36 °F (at 1:51 AM)
Average temperature yesterday: 44 °F

Past Weeks' High & Low Weather Summary

 TemperatureHumidityPressure
High63 °F (Mar 26, 7:51 PM)100% (Mar 26, 7:51 AM)30.42 "Hg (Mar 26, 7:51 AM)
Low23 °F (Mar 23, 6:51 AM)15% (Mar 29, 4:51 PM)29.56 "Hg (Mar 17, 10:51 AM)
Average39 °F51%30.04 "Hg
* Reported Mar 16 12:51 PM — Mar 31 12:51 PM, Jersey City, Weather by CustomWeather, © 2015

Note: Actual official high and low records may vary slightly from our data, if they occured in-between our weather recording intervals... More about our weather records

Advertising

Jersey City weather history for previous 24 hours

 ConditionsComfort  
Time TempWeatherWind HumidityBarometerVisibility
12:51 PM
Tue, Mar 31
45 °FMostly cloudy.6 mph40%29.81 "Hg10 mi
11:51 AM46 °FMostly cloudy.14 mph38%29.84 "Hg10 mi
10:51 AM46 °FPartly sunny.6 mph38%29.87 "Hg10 mi
9:51 AM45 °FBroken clouds.9 mph42%29.89 "Hg10 mi
8:51 AM44 °FPartly sunny.9 mph45%29.89 "Hg10 mi
7:51 AM41 °FScattered clouds.6 mph51%29.91 "Hg10 mi
6:51 AM38 °FPassing clouds.9 mph63%29.88 "Hg10 mi
5:51 AM40 °FPassing clouds.7 mph65%29.87 "Hg10 mi
4:51 AM41 °FPassing clouds.6 mph67%29.85 "Hg10 mi
3:51 AM41 °FPassing clouds.9 mph74%29.84 "Hg10 mi
2:51 AM42 °FPartly cloudy.8 mph73%29.85 "Hg10 mi
1:51 AM42 °FPassing clouds.10 mph73%29.85 "Hg10 mi
12:51 AM43 °FLight rain. Partly cloudy.16 mph74%29.86 "Hg10 mi
11:51 PM
Mon, Mar 30
44 °FLight rain. Overcast.9 mph63%29.87 "Hg10 mi
10:51 PM46 °FPassing clouds.12 mph54%29.88 "Hg10 mi
9:51 PM47 °FPassing clouds.13 mph52%29.87 "Hg10 mi
8:51 PM50 °FPassing clouds.9 mph35%29.83 "Hg10 mi
7:51 PM51 °FScattered clouds.13 mph32%29.80 "Hg10 mi
6:51 PM53 °FScattered clouds.20 mph28%29.79 "Hg10 mi
5:51 PM53 °FPartly sunny.23 mph31%29.78 "Hg10 mi
4:51 PM52 °FPartly sunny.20 mph37%29.78 "Hg10 mi
3:51 PM52 °FBroken clouds.22 mph38%29.78 "Hg10 mi
2:51 PM54 °FPartly sunny.21 mph37%29.78 "Hg10 mi
Weather by CustomWeather, © 2015

See weather overviewHow to use our weather pages